^^
Saratoga-Weather Station Historical Data
Daily Summary for June 29, 2021 Units:  English    Metric   Both
Daily Weekly Monthly Yearly Custom
  High: Low: Average:
Temperature: 72.7 °F 58.5 °F 64.6 °F
Dew Point: 57.4 °F 52.7 °F 55.2 °F
Humidity: 90% 52% 73%
Wind Speed: 8.9mph 0mph 1.7mph
Wind Gust: 15mph - -
Wind- - WSW
Pressure: 30 in 29.9 in -
Precipitation: 0 in    
Historical Graphs
 
 
Tabular Data for June 29, 2021
Time Temperature Dew Point Pressure Wind Wind Speed Wind Gust Humidity Rainfall Rate (Hourly) solar
00:01 59.2 °F 55.6 °F 29.9 in Calm     88% 0 in 0 W/m2
00:06 59.2 °F 55.9 °F 29.9 in ENE 0.9 mph 1 mph 89% 0 in 0 W/m2
00:11 59.2 °F 55.9 °F 29.9 in Calm   2 mph 89% 0 in 0 W/m2
00:16 59.2 °F 55.9 °F 29.9 in Calm   1 mph 89% 0 in 0 W/m2
00:21 59.2 °F 56.3 °F 29.9 in Calm   1 mph 90% 0 in 0 W/m2
00:26 59.2 °F 55.9 °F 29.9 in ENE 0.9 mph 2 mph 89% 0 in 0 W/m2
00:31 59.4 °F 56.5 °F 29.9 in Calm   1 mph 90% 0 in 0 W/m2
00:36 59.4 °F 56.1 °F 29.9 in SSE 2 mph 2 mph 89% 0 in 0 W/m2
00:41 59.5 °F 56.3 °F 29.9 in Calm   2 mph 89% 0 in 0 W/m2
00:59 60.3 °F 56.3 °F 29.9 in Calm     87% 0 in 0 W/m2
01:04 60.3 °F 56.1 °F 29.9 in Calm   2 mph 86% 0 in 0 W/m2
01:10 60.6 °F 56.1 °F 29.9 in Calm   1 mph 85% 0 in 0 W/m2
01:15 61 °F 56.8 °F 29.9 in Calm   2 mph 86% 0 in 0 W/m2
01:20 61 °F 55.8 °F 29.9 in Calm   3 mph 83% 0 in 0 W/m2
01:25 61.2 °F 55.6 °F 29.9 in Calm   2 mph 82% 0 in 0 W/m2
01:42 62.1 °F 55.8 °F 29.9 in East 0.9 mph 2 mph 80% 0 in 0 W/m2
01:47 62.6 °F 55.6 °F 29.9 in North 0.9 mph 3 mph 78% 0 in 0 W/m2
01:52 63 °F 55.9 °F 29.9 in NNW 2 mph 3 mph 78% 0 in 0 W/m2
01:57 63.1 °F 55.8 °F 29.9 in NW 0.9 mph 2 mph 77% 0 in 0 W/m2
02:02 63.3 °F 55.6 °F 29.9 in SE 0.9 mph 3 mph 76% 0 in 0 W/m2
02:22 63.3 °F 55.6 °F 29.9 in WSW 0.9 mph 3 mph 76% 0 in 0 W/m2
02:27 63.1 °F 55.8 °F 29.9 in WNW 2.9 mph 3 mph 77% 0 in 0 W/m2
02:32 63 °F 55.6 °F 29.9 in West 2 mph 6 mph 77% 0 in 0 W/m2
02:37 62.8 °F 55.8 °F 29.9 in NNW 0.9 mph 3 mph 78% 0 in 0 W/m2
02:42 62.4 °F 55.4 °F 29.9 in Calm   3 mph 78% 0 in 0 W/m2
02:47 62.2 °F 55.6 °F 29.9 in North 0.9 mph 2 mph 79% 0 in 0 W/m2
02:52 62.1 °F 55.4 °F 29.9 in NNE 2 mph 2 mph 79% 0 in 0 W/m2
02:57 61.9 °F 55.2 °F 29.9 in WNW 0.9 mph 4 mph 79% 0 in 0 W/m2
03:02 61.7 °F 55.4 °F 29.9 in North 2 mph 3 mph 80% 0 in 0 W/m2
03:07 61.5 °F 55.2 °F 29.9 in NE 0.9 mph 3 mph 80% 0 in 0 W/m2
03:12 61.5 °F 55.2 °F 29.9 in Calm   2 mph 80% 0 in 0 W/m2
03:17 61.5 °F 55.2 °F 29.9 in Calm   3 mph 80% 0 in 0 W/m2
03:22 61.3 °F 55.4 °F 29.9 in West 0.9 mph 1 mph 81% 0 in 0 W/m2
03:27 61.3 °F 55.4 °F 29.9 in NNW 2 mph 3 mph 81% 0 in 0 W/m2
03:32 61.2 °F 55.2 °F 29.9 in WNW 4 mph 4 mph 81% 0 in 0 W/m2
03:37 61.2 °F 55.6 °F 29.9 in WSW 0.9 mph 1 mph 82% 0 in 0 W/m2
03:42 61.2 °F 55.6 °F 29.9 in Calm   2 mph 82% 0 in 0 W/m2
03:47 61 °F 55.4 °F 29.9 in Calm   3 mph 82% 0 in 0 W/m2
03:52 61.2 °F 55.6 °F 29.9 in Calm     82% 0 in 0 W/m2
03:57 61 °F 55.4 °F 29.9 in WNW 0.9 mph 2 mph 82% 0 in 0 W/m2
04:02 61 °F 55.4 °F 29.9 in WSW 2 mph 4 mph 82% 0 in 0 W/m2
04:07 61.2 °F 55.6 °F 29.9 in Calm   2 mph 82% 0 in 0 W/m2
04:12 61.2 °F 55.6 °F 29.9 in Calm   2 mph 82% 0 in 0 W/m2
04:17 61.2 °F 55.6 °F 29.9 in Calm   2 mph 82% 0 in 0 W/m2
04:22 61 °F 55.4 °F 29.9 in Calm   2 mph 82% 0 in 0 W/m2
04:27 61 °F 55.4 °F 29.9 in North 2 mph 3 mph 82% 0 in 0 W/m2
04:32 61 °F 55.4 °F 29.9 in NE 0.9 mph 3 mph 82% 0 in 0 W/m2
04:37 61 °F 55.4 °F 29.9 in Calm   3 mph 82% 0 in 0 W/m2
04:55 61.2 °F 55.6 °F 29.9 in NNE 0.9 mph 2 mph 82% 0 in 0 W/m2
05:00 61.2 °F 55.6 °F 29.9 in NNE 0.9 mph 8 mph 82% 0 in 0 W/m2
05:05 61.2 °F 55.6 °F 29.9 in NW 2 mph 3 mph 82% 0 in 0 W/m2
05:10 61 °F 55.4 °F 29.9 in ENE 0.9 mph 8 mph 82% 0 in 0 W/m2
05:15 60.8 °F 55.2 °F 29.9 in WNW 2 mph 2 mph 82% 0 in 0 W/m2
05:20 60.6 °F 55 °F 29.9 in SSW 0.9 mph 4 mph 82% 0 in 0 W/m2
05:25 60.6 °F 55 °F 29.9 in SW 0.9 mph 1 mph 82% 0 in 0 W/m2
05:30 60.4 °F 54.9 °F 29.9 in Calm   4 mph 82% 0 in 0 W/m2
05:35 60.3 °F 55 °F 29.9 in ENE 0.9 mph 1 mph 83% 0 in 0 W/m2
05:40 60.1 °F 54.9 °F 29.9 in ESE 0.9 mph 3 mph 83% 0 in 0 W/m2
05:45 59.7 °F 54.9 °F 29.9 in ESE 0.9 mph 2 mph 84% 0 in 0 W/m2
05:50 59.5 °F 54.7 °F 29.9 in ESE 0.9 mph 3 mph 84% 0 in 0 W/m2
05:55 59.4 °F 54.9 °F 29.9 in East 0.9 mph 2 mph 85% 0 in 0 W/m2
06:00 59.2 °F 54.7 °F 29.9 in Calm     85% 0 in 0 W/m2
06:19 58.5 °F 54.3 °F 29.9 in ESE 2 mph 3 mph 86% 0 in 9 W/m2
06:24 58.5 °F 54.3 °F 29.9 in Calm     86% 0 in 11 W/m2
06:29 58.5 °F 54.3 °F 29.9 in Calm   1 mph 86% 0 in 14 W/m2
06:34 58.5 °F 54 °F 29.9 in Calm   2 mph 85% 0 in 16 W/m2
06:39 58.5 °F 54 °F 29.9 in SW 0.9 mph 4 mph 85% 0 in 19 W/m2
06:44 58.5 °F 54 °F 29.9 in NE 0.9 mph 2 mph 85% 0 in 21 W/m2
06:49 58.5 °F 54 °F 29.9 in Calm   2 mph 85% 0 in 23 W/m2
06:54 58.6 °F 53.8 °F 29.9 in Calm   2 mph 84% 0 in 25 W/m2
06:59 58.6 °F 53.8 °F 29.9 in WNW 0.9 mph 2 mph 84% 0 in 26 W/m2
07:20 59 °F 54.1 °F 29.9 in ESE 2.9 mph 3 mph 84% 0 in 33 W/m2
07:25 59.2 °F 54.3 °F 29.9 in SW 0.9 mph 2 mph 84% 0 in 33 W/m2
07:30 59.2 °F 54 °F 29.9 in SW 2 mph 2 mph 83% 0 in 35 W/m2
07:35 59.4 °F 54.1 °F 29.9 in NNW 0.9 mph 6 mph 83% 0 in 35 W/m2
07:40 59.4 °F 54.1 °F 29.9 in North 2.9 mph 4 mph 83% 0 in 37 W/m2
07:56 59.5 °F 54.3 °F 29.9 in NE 0.9 mph 1 mph 83% 0 in 46 W/m2
08:01 59.7 °F 54.5 °F 29.9 in West 2.9 mph 3 mph 83% 0 in 58 W/m2
08:07 60.1 °F 54.9 °F 29.9 in West 0.9 mph 6 mph 83% 0 in 42 W/m2
08:12 60.1 °F 54.5 °F 29.9 in Calm   2 mph 82% 0 in 44 W/m2
08:17 60.4 °F 54.9 °F 29.9 in NNE 2 mph 6 mph 82% 0 in 47 W/m2
08:22 60.6 °F 55 °F 29.9 in West 6.9 mph 9 mph 82% 0 in 49 W/m2
08:27 60.8 °F 54.9 °F 29.9 in SW 0.9 mph 8 mph 81% 0 in 56 W/m2
08:32 61 °F 55 °F 29.9 in Calm   5 mph 81% 0 in 84 W/m2
08:37 61.2 °F 55.2 °F 29.9 in NW 2.9 mph 4 mph 81% 0 in 86 W/m2
08:42 61.2 °F 55.2 °F 29.9 in NW 2.9 mph 6 mph 81% 0 in 109 W/m2
08:47 61 °F 55 °F 29.9 in NNW 2 mph 3 mph 81% 0 in 72 W/m2
08:52 61 °F 55 °F 29.9 in NW 2.9 mph 8 mph 81% 0 in 107 W/m2
08:57 61 °F 55.4 °F 29.9 in NW 0.9 mph 3 mph 82% 0 in 165 W/m2
09:14 61.3 °F 55.4 °F 30 in NNW 6 mph 7 mph 81% 0 in 183 W/m2
09:19 61.5 °F 55.6 °F 30 in West 2 mph 4 mph 81% 0 in 197 W/m2
09:24 61.5 °F 55.6 °F 30 in NW 0.9 mph 7 mph 81% 0 in 213 W/m2
09:29 61.7 °F 55.8 °F 30 in East 2.9 mph 8 mph 81% 0 in 229 W/m2
09:34 61.9 °F 55.9 °F 30 in NNW 4 mph 6 mph 81% 0 in 229 W/m2
09:39 62.1 °F 55.8 °F 30 in West 2 mph 8 mph 80% 0 in 230 W/m2
09:44 62.1 °F 55.8 °F 30 in ESE 0.9 mph 7 mph 80% 0 in 241 W/m2
09:49 62.1 °F 56.1 °F 30 in NW 2 mph 8 mph 81% 0 in 239 W/m2
09:54 62.2 °F 56.3 °F 30 in WNW 0.9 mph 7 mph 81% 0 in 243 W/m2
09:59 62.4 °F 56.1 °F 30 in Calm   8 mph 80% 0 in 267 W/m2
10:04 62.6 °F 56.3 °F 30 in WNW 2 mph 5 mph 80% 0 in 258 W/m2
10:09 63 °F 56.3 °F 30 in NW 0.9 mph 6 mph 79% 0 in 267 W/m2
10:14 63 °F 56.3 °F 30 in West 2 mph 3 mph 79% 0 in 283 W/m2
10:19 63 °F 56.3 °F 30 in NW 2 mph 4 mph 79% 0 in 271 W/m2
10:24 63.1 °F 56.5 °F 30 in NW 4 mph 9 mph 79% 0 in 287 W/m2
10:29 63 °F 56.3 °F 30 in NW 2.9 mph 7 mph 79% 0 in 338 W/m2
10:34 63.1 °F 56.1 °F 30 in WSW 4 mph 9 mph 78% 0 in 295 W/m2
10:39 63.3 °F 56.3 °F 30 in NNE 2 mph 10 mph 78% 0 in 294 W/m2
10:44 63.3 °F 56.3 °F 30 in WNW 2 mph 6 mph 78% 0 in 371 W/m2
10:49 63.7 °F 56.7 °F 30 in SW 0.9 mph 10 mph 78% 0 in 439 W/m2
10:54 64 °F 56.3 °F 30 in NNW 2 mph 7 mph 76% 0 in 341 W/m2
10:59 64.6 °F 56.8 °F 30 in NW 2.9 mph 5 mph 76% 0 in 445 W/m2
11:04 64.6 °F 56.5 °F 30 in WNW 2.9 mph 5 mph 75% 0 in 292 W/m2
11:09 64.8 °F 56.7 °F 30 in WNW 0.9 mph 6 mph 75% 0 in 297 W/m2
11:14 64.9 °F 57.2 °F 30 in WNW 2.9 mph 4 mph 76% 0 in 350 W/m2
11:19 65.5 °F 57 °F 30 in NE 2 mph 4 mph 74% 0 in 276 W/m2
11:24 65.1 °F 56.3 °F 30 in West 6 mph 10 mph 73% 0 in 302 W/m2
11:29 65.1 °F 56.3 °F 30 in NNW 2 mph 6 mph 73% 0 in 438 W/m2
11:34 65.7 °F 55.9 °F 30 in WNW 4.9 mph 9 mph 71% 0 in 1002 W/m2
11:54 66.4 °F 55.6 °F 30 in NW 0.9 mph 9 mph 68% 0 in 338 W/m2
11:59 66 °F 55.2 °F 30 in NW 0.9 mph 10 mph 68% 0 in 241 W/m2
12:04 65.8 °F 55 °F 30 in NW 2.9 mph 6 mph 68% 0 in 218 W/m2
12:09 65.7 °F 55.2 °F 30 in NW 4.9 mph 8 mph 69% 0 in 216 W/m2
12:14 65.5 °F 55 °F 30 in WSW 2.9 mph 8 mph 69% 0 in 200 W/m2
12:19 65.1 °F 55 °F 30 in North 2 mph 9 mph 70% 0 in 167 W/m2
12:24 65.1 °F 55 °F 30 in WNW 0.9 mph 4 mph 70% 0 in 269 W/m2
12:29 65.8 °F 55.8 °F 29.9 in North 0.9 mph 9 mph 70% 0 in 991 W/m2
12:34 66.7 °F 55.8 °F 30 in WNW 0.9 mph 6 mph 68% 0 in 408 W/m2
12:39 67.5 °F 55.8 °F 29.9 in WNW 2.9 mph 7 mph 66% 0 in 471 W/m2
12:44 67.8 °F 55.6 °F 29.9 in ENE 4 mph 6 mph 65% 0 in 969 W/m2
12:49 68.4 °F 55.2 °F 29.9 in WNW 2.9 mph 6 mph 63% 0 in 281 W/m2
12:54 68.2 °F 54.7 °F 30 in WNW 4 mph 7 mph 62% 0 in 269 W/m2
12:59 67.5 °F 54.9 °F 30 in WNW 0.9 mph 7 mph 64% 0 in 243 W/m2
13:19 68.7 °F 55.2 °F 29.9 in WSW 4.9 mph 6 mph 62% 0 in 404 W/m2
13:24 68.5 °F 55 °F 29.9 in WNW 2.9 mph 12 mph 62% 0 in 396 W/m2
13:29 68.5 °F 55 °F 29.9 in NNW 4 mph 10 mph 62% 0 in 336 W/m2
13:34 68.7 °F 56.5 °F 29.9 in NW 4 mph 4 mph 65% 0 in 1099 W/m2
13:39 69.4 °F 54.9 °F 29.9 in WSW 4 mph 6 mph 60% 0 in 332 W/m2
13:44 69.8 °F 55.8 °F 29.9 in West 4 mph 4 mph 61% 0 in 1192 W/m2
13:49 70 °F 54 °F 29.9 in NW 2.9 mph 7 mph 57% 0 in 457 W/m2
13:54 69.6 °F 54.1 °F 29.9 in NNW 0.9 mph 7 mph 58% 0 in 343 W/m2
13:59 69.4 °F 54.5 °F 29.9 in West 4 mph 6 mph 59% 0 in 336 W/m2
14:04 69.3 °F 54.3 °F 29.9 in West 4 mph 6 mph 59% 0 in 221 W/m2
14:09 69.3 °F 54.3 °F 29.9 in West 6 mph 9 mph 59% 0 in 1071 W/m2
14:26 69.3 °F 53.8 °F 29.9 in Calm   6 mph 58% 0 in 227 W/m2
14:31 70 °F 54.5 °F 29.9 in NNW 2 mph 6 mph 58% 0 in 1027 W/m2
14:36 70.7 °F 53.8 °F 29.9 in West 8.1 mph 8 mph 55% 0 in 1062 W/m2
14:41 71.2 °F 54.7 °F 29.9 in West 8.1 mph 12 mph 56% 0 in 1116 W/m2
14:46 71.4 °F 54.5 °F 29.9 in West 4 mph 8 mph 55% 0 in 570 W/m2
14:51 70.9 °F 52.9 °F 29.9 in WNW 2.9 mph 9 mph 53% 0 in 285 W/m2
14:56 70.2 °F 52.7 °F 29.9 in West 4 mph 15 mph 54% 0 in 341 W/m2
15:01 70 °F 53.6 °F 29.9 in West 8.1 mph 8 mph 56% 0 in 304 W/m2
15:06 69.8 °F 54.3 °F 29.9 in SW 0.9 mph 15 mph 58% 0 in 366 W/m2
15:11 70.2 °F 54.1 °F 29.9 in NW 2.9 mph 5 mph 57% 0 in 1041 W/m2
15:16 71.1 °F 54.1 °F 29.9 in NE 6.9 mph 9 mph 55% 0 in 1060 W/m2
15:21 71.1 °F 54.5 °F 29.9 in NNE 2 mph 9 mph 56% 0 in 1063 W/m2
15:26 71.2 °F 54.3 °F 29.9 in NW 2.9 mph 7 mph 55% 0 in 984 W/m2
15:31 71.4 °F 54.5 °F 29.9 in SSW 4.9 mph 9 mph 55% 0 in 315 W/m2
15:36 71.1 °F 54.5 °F 29.9 in NW 6 mph 10 mph 56% 0 in 304 W/m2
15:41 70.9 °F 54.3 °F 29.9 in WNW 2.9 mph 9 mph 56% 0 in 267 W/m2
15:46 71.1 °F 55 °F 29.9 in West 2.9 mph 10 mph 57% 0 in 722 W/m2
15:51 71.2 °F 54.7 °F 29.9 in NW 2 mph 6 mph 56% 0 in 1000 W/m2
15:56 71.6 °F 55 °F 29.9 in Calm   10 mph 56% 0 in 216 W/m2
16:01 71.6 °F 55.6 °F 29.9 in NW 4 mph 7 mph 57% 0 in 301 W/m2
16:21 71.4 °F 54.5 °F 29.9 in WNW 0.9 mph 7 mph 55% 0 in 264 W/m2
16:26 71.2 °F 54.3 °F 29.9 in West 2 mph 9 mph 55% 0 in 295 W/m2
16:31 71.1 °F 54.1 °F 29.9 in North 2 mph 3 mph 55% 0 in 364 W/m2
16:36 71.6 °F 55.6 °F 29.9 in WNW 2.9 mph 7 mph 57% 0 in 364 W/m2
16:41 72 °F 55.4 °F 29.9 in WNW 2 mph 9 mph 56% 0 in 795 W/m2
16:46 72.1 °F 55.6 °F 29.9 in West 6.9 mph 8 mph 56% 0 in 371 W/m2
16:51 71.2 °F 54.3 °F 29.9 in NW 2 mph 11 mph 55% 0 in 216 W/m2
16:56 71.1 °F 54.5 °F 29.9 in West 2.9 mph 6 mph 56% 0 in 742 W/m2
17:01 71.2 °F 54.7 °F 29.9 in WSW 4.9 mph 11 mph 56% 0 in 661 W/m2
17:06 71.6 °F 55 °F 29.9 in West 2 mph 9 mph 56% 0 in 659 W/m2
17:11 72 °F 54.3 °F 29.9 in WNW 4 mph 12 mph 54% 0 in 647 W/m2
17:16 72.1 °F 55 °F 29.9 in West 2.9 mph 3 mph 55% 0 in 677 W/m2
17:21 72.7 °F 55 °F 29.9 in WNW 8.9 mph 11 mph 54% 0 in 631 W/m2
17:26 72.7 °F 54.5 °F 29.9 in West 2.9 mph 7 mph 53% 0 in 601 W/m2
17:31 72.7 °F 54.5 °F 29.9 in WNW 8.1 mph 13 mph 53% 0 in 642 W/m2
17:36 72 °F 54 °F 29.9 in NW 0.9 mph 7 mph 53% 0 in 642 W/m2
17:41 72 °F 54.3 °F 29.9 in NNW 2.9 mph 5 mph 54% 0 in 619 W/m2
17:46 72.1 °F 54.1 °F 29.9 in West 4 mph 8 mph 53% 0 in 575 W/m2
17:51 72.3 °F 53.8 °F 29.9 in West 4 mph 7 mph 52% 0 in 580 W/m2
18:12 71.8 °F 54.3 °F 29.9 in NW 2.9 mph 4 mph 54% 0 in 271 W/m2
18:17 72 °F 54 °F 29.9 in NW 4.9 mph 7 mph 53% 0 in 360 W/m2
18:22 71.8 °F 54.3 °F 29.9 in SW 2.9 mph 9 mph 54% 0 in 512 W/m2
18:27 71.6 °F 54.1 °F 29.9 in NW 0.9 mph 7 mph 54% 0 in 427 W/m2
18:32 71.8 °F 53.8 °F 29.9 in WSW 4 mph 8 mph 53% 0 in 84 W/m2
18:49 70.9 °F 54 °F 29.9 in WNW 2.9 mph 4 mph 55% 0 in 111 W/m2
18:54 70.5 °F 55 °F 29.9 in NW 2 mph 2 mph 58% 0 in 114 W/m2
18:59 70.5 °F 55.6 °F 29.9 in WNW 0.9 mph 2 mph 59% 0 in 156 W/m2
19:15 70.7 °F 54.7 °F 29.9 in West 2.9 mph 5 mph 57% 0 in 225 W/m2
19:20 71.1 °F 54.1 °F 29.9 in WSW 2.9 mph 3 mph 55% 0 in 160 W/m2
19:25 71.1 °F 55 °F 29.9 in WNW 0.9 mph 5 mph 57% 0 in 207 W/m2
19:30 71.2 °F 54.7 °F 29.9 in Calm   3 mph 56% 0 in 151 W/m2
19:35 71.2 °F 54.3 °F 29.9 in NW 2.9 mph 3 mph 55% 0 in 178 W/m2
19:40 71.1 °F 54.5 °F 29.9 in NW 0.9 mph 3 mph 56% 0 in 113 W/m2
19:45 70.9 °F 54.9 °F 29.9 in Calm   2 mph 57% 0 in 83 W/m2
19:50 70.5 °F 54.1 °F 29.9 in Calm   2 mph 56% 0 in 86 W/m2
19:55 70.2 °F 56.1 °F 29.9 in Calm     61% 0 in 47 W/m2
20:00 69.8 °F 57 °F 29.9 in Calm   1 mph 64% 0 in 32 W/m2
20:05 69.3 °F 57 °F 29.9 in Calm   1 mph 65% 0 in 30 W/m2
20:10 68.7 °F 56.8 °F 29.9 in Calm     66% 0 in 33 W/m2
20:16 68.4 °F 57.4 °F 29.9 in Calm   1 mph 68% 0 in 35 W/m2
20:34 67.3 °F 57.2 °F 29.9 in NW 0.9 mph 1 mph 70% 0 in 39 W/m2
20:39 66.9 °F 56.8 °F 29.9 in NW 0.9 mph 1 mph 70% 0 in 30 W/m2
20:44 66.6 °F 56.5 °F 29.9 in Calm     70% 0 in 28 W/m2
20:49 66.4 °F 56.7 °F 29.9 in NW 1 mph 1 mph 71% 0 in 23 W/m2
20:54 65.8 °F 55.8 °F 29.9 in Calm     70% 0 in 19 W/m2
20:59 65.7 °F 55.9 °F 29.9 in Calm     71% 0 in 12 W/m2
21:04 65.1 °F 55.9 °F 29.9 in Calm     72% 0 in 9 W/m2
21:25 63.7 °F 55.6 °F 29.9 in NW 0.9 mph 2 mph 75% 0 in 0 W/m2
21:30 63.3 °F 54.9 °F 29.9 in WNW 0.9 mph 1 mph 74% 0 in 0 W/m2
21:35 63 °F 54.9 °F 29.9 in Calm   1 mph 75% 0 in 0 W/m2
21:40 62.8 °F 55 °F 29.9 in WNW 0.9 mph 2 mph 76% 0 in 0 W/m2
21:45 62.4 °F 54.7 °F 29.9 in Calm   1 mph 76% 0 in 0 W/m2
22:01 62.1 °F 54.7 °F 29.9 in Calm     77% 0 in 0 W/m2
22:06 61.9 °F 54.9 °F 29.9 in Calm     78% 0 in 0 W/m2
22:11 61.9 °F 54.9 °F 29.9 in Calm     78% 0 in 0 W/m2
22:31 61.5 °F 54.9 °F 29.9 in Calm     79% 0 in 0 W/m2
22:36 61.3 °F 54.9 °F 29.9 in SW 0.9 mph 1 mph 79% 0 in 0 W/m2
22:41 61.3 °F 54.9 °F 29.9 in Calm   1 mph 79% 0 in 0 W/m2
22:46 61.2 °F 54.9 °F 29.9 in Calm     80% 0 in 0 W/m2
22:51 61 °F 54.7 °F 29.9 in Calm     80% 0 in 0 W/m2
22:56 61 °F 54.7 °F 29.9 in Calm     80% 0 in 0 W/m2
23:01 60.8 °F 54.9 °F 29.9 in Calm     81% 0 in 0 W/m2
23:06 60.6 °F 54.7 °F 29.9 in Calm     81% 0 in 0 W/m2
23:11 60.4 °F 54.5 °F 29.9 in Calm     81% 0 in 0 W/m2
23:16 60.3 °F 54.7 °F 29.9 in Calm     82% 0 in 0 W/m2
23:21 60.1 °F 54.9 °F 29.9 in Calm     83% 0 in 0 W/m2
23:26 59.7 °F 54.5 °F 29.9 in Calm     83% 0 in 0 W/m2
23:31 59.5 °F 54.3 °F 29.9 in Calm     83% 0 in 0 W/m2
23:36 59.4 °F 54.1 °F 29.9 in Calm     83% 0 in 0 W/m2
23:41 59.2 °F 54.3 °F 29.9 in Calm     84% 0 in 0 W/m2
23:46 59.2 °F 54.3 °F 29.9 in Calm     84% 0 in 0 W/m2
23:51 58.8 °F 54 °F 29.9 in Calm     84% 0 in 0 W/m2
23:56 58.8 °F 54 °F 29.9 in Calm     84% 0 in 0 W/m2
Juneau County Weather
Compliments of Weather Underground - 4 mb